Guthrie, OK

10:53 PM CDT on April 19, 2018 (GMT -0500)
Guthrie Municipal

Weather History for KGOK - January, 2014

Change the Weather History Date:

Saturday, January 18, 2014

  Actual Average Record
Temperature  
Mean Temperature 50 °F -  
Max Temperature 62 °F 47 °F 73 °F (2015)
Min Temperature 37 °F 25 °F 7 °F (1977)
Degree Days  
Heating Degree Days 16    
Moisture  
Dew Point 20 °F    
Average Humidity 34    
Maximum Humidity 54    
Minimum Humidity 20    
Precipitation  
Precipitation 0.00 in - - ()
Sea Level Pressure  
Sea Level Pressure 30.07 in    
Wind  
Wind Speed 9 mph (WNW)    
Max Wind Speed 16 mph    
Max Gust Speed 28 mph    
Visibility 10 miles    
Events Rain    
Averages and records for this station are not official NWS values.
T = Trace of Precipitation, MM = Missing Value Source: NWS Daily Summary

Daily Weather History Graph

Daily Weather History Graph

Search for Another Location

Airport or City:

Astronomy

Jan. 18, 2014 Rise Set
Actual Time 7:38 AM CST 5:42 PM CST
Civil Twilight 7:10 AM CST 6:10 PM CST
Nautical Twilight 6:39 AM CST 6:41 PM CST
Astronomical Twilight 6:08 AM CST 7:12 PM CST
Moon 8:18 PM CST (1/18) 8:44 AM CST (1/18)
Length of Visible Light 10h 59m
Length of Day
10h 04m
Waning Gibbous, 94% of the Moon is Illuminated
Jan 18
Waning Gibbous
Jan 23
Last Quarter
Jan 30
New
Feb 6
First Quarter
Feb 14
Full

Hourly Weather History & Observations

Time (CST) Temp. Windchill Dew Point Humidity Pressure Visibility Wind Dir Wind Speed Gust Speed Precip Events Conditions
12:53 AM 37.9 °F 33.5 °F 17.1 °F 43% 30.07 in 10.0 mi SW 5.8 mph - N/A   Clear
1:53 AM 41.0 °F 35.2 °F 17.1 °F 38% 30.06 in 10.0 mi SSW 9.2 mph - N/A   Clear
2:53 AM 42.1 °F 35.7 °F 17.1 °F 37% 30.04 in 10.0 mi SW 11.5 mph - N/A   Clear
3:53 AM 44.1 °F 38.1 °F 18.0 °F 35% 30.02 in 10.0 mi SW 11.5 mph 24.2 mph N/A   Clear
4:53 AM 42.1 °F 35.2 °F 18.0 °F 38% 30.01 in 10.0 mi SW 12.7 mph 19.6 mph N/A   Clear
5:53 AM 39.9 °F 33.9 °F 19.0 °F 43% 30.00 in 10.0 mi SW 9.2 mph - N/A   Clear
6:53 AM 39.9 °F 34.5 °F 19.9 °F 45% 30.00 in 10.0 mi SW 8.1 mph - N/A   Clear
7:53 AM 39.0 °F 34.0 °F 19.9 °F 46% 30.01 in 9.0 mi SW 6.9 mph - N/A   Clear
8:53 AM 43.0 °F 38.8 °F 21.0 °F 42% 30.02 in 9.0 mi SW 6.9 mph - N/A   Clear
9:53 AM 50.0 °F - 21.0 °F 32% 30.04 in 10.0 mi WNW 11.5 mph - 0.00 in Rain Light Rain
10:53 AM 55.9 °F - 21.9 °F 27% 30.05 in 10.0 mi NW 10.4 mph 17.3 mph 0.00 in Rain Light Rain
11:53 AM 60.1 °F - 23.0 °F 24% 30.04 in 10.0 mi North 12.7 mph 20.7 mph 0.00 in   Clear
12:53 PM 61.0 °F - 23.0 °F 23% 30.01 in 10.0 mi NW 12.7 mph 23.0 mph N/A   Clear
1:53 PM 62.1 °F - 23.0 °F 22% 30.00 in 10.0 mi NNW 11.5 mph 23.0 mph N/A   Clear
2:53 PM 62.1 °F - 23.0 °F 22% 30.01 in 10.0 mi NW 15.0 mph 26.5 mph N/A   Clear
3:53 PM 60.1 °F - 21.0 °F 22% 30.03 in 10.0 mi NW 16.1 mph 27.6 mph N/A   Clear
4:53 PM 59.0 °F - 18.0 °F 20% 30.07 in 10.0 mi NNW 13.8 mph 26.5 mph N/A   Clear
5:53 PM 55.0 °F - 18.0 °F 23% 30.10 in 10.0 mi NNW 6.9 mph - N/A   Clear
6:53 PM 51.1 °F - 19.0 °F 28% 30.14 in 10.0 mi Variable 6.9 mph - N/A   Clear
7:53 PM 48.0 °F - 19.9 °F 33% 30.16 in 10.0 mi Variable 4.6 mph - N/A   Clear
8:53 PM 45.0 °F 42.6 °F 21.0 °F 39% 30.19 in 10.0 mi North 4.6 mph - N/A   Clear
9:53 PM 44.1 °F 40.8 °F 23.0 °F 43% 30.20 in 10.0 mi North 5.8 mph - N/A   Clear
10:53 PM 42.1 °F 38.4 °F 21.9 °F 45% 30.21 in 10.0 mi North 5.8 mph - N/A   Clear
11:53 PM 37.0 °F - 21.9 °F 54% 30.21 in 10.0 mi Calm Calm - N/A   Clear